CZ-2C R/B, 58916

Orbit data source: Space-Track

CZ-2C R/B, 58916 is space debris in LEO originally from a launch on Fri, 02 Feb 2024 UTC launched from the Xichang Space Center, China (XSC). Debris objects in space refer to the collection of defunct objects orbiting the Earth. Examples of debris include non-operational satellites, rocket bodies, and fragments generated from explosions, collisions, or faulty payload assembly.

Loading next visibility...
Identifier
58916, 2024-023M
Orbit
LEO
Country
Flag of CNCN / PRC
Related business
Manufacturer
CALT
Mission
Spacecraft
Bus & Motor
CZ-2 STAGE 2, Unknown motor
Mass
~3,800 kg wet, ~3,800 kg dry
Launch date (UTC)
2024-02-02 (2 years ago)
Launch vehicle
Unknown
Launch site
Xichang Space Center, China (XSC)
Object type
Payload
Rocket body
Debris
Shape & HBR
Cyl, 3.7 m
Radar Cross Section
23.715 m², Large (>1 m²)

Expand to show TLE details & history
Last TLE update: 18 hours ago

TLE from 18 hours ago
0 CZ-2C R/B
1 58916U 24023M   25303.82978662  .00001193  00000-0  21394-3 0  9997
2 58916  49.8967  66.4157 0095300 120.0783 240.9640 14.71004890 93530
Epoch: 2025-10-30T19:54Z
TLE epoch observation values (Epoch: 2025-10-30T19:54:53.563Z)
Latitude
-0.00005°
Longitude
88.30953°
Altitude
691.42 km
Speed
7.494 km/s
True Right ascension
04h 25m 39s
True Declination
0° 00' 00"
Sunlit
Object was in full shadow at epoch
Visualization orbit readout
Latitude
Unknown
Longitude
Unknown
Altitude
Unknown
Speed
Unknown
Apparent Right ascension
Unknown
Apparent Declination
Unknown
Sunlit
N/A
Visualization observer readout
Local Sidereal Time
09:35:01
Azimuth
Unknown
Elevation
Unknown
Doppler factor
Unknown
Orbital elements
Apogee altitude
725.693 km
Perigee altitude
591.572 km
Semi-major axis
7,036.77 km
Eccentricity
0.00953
Inclination
49.8967°
RAAN
66.4157°
Arg. of periapsis
120.0783°
True anomaly
240.01473°
Mean anomaly
240.964°
Eccentric anomaly
240.48881°
Mean motion
3.67691 °/min
Orbital period
97.91 mins
BSTAR
0.00021394
Loading maneuver chart data...
Computing Atmospheric mass density...
Loading historical data...
Loading historical data...
Loading historical data...
Loading historical data...
Loading historical data...
Loading historical data...
Loading historical data...

Documentation

Showing up to 5 results
|